sat.trackr.live / text

‹ back to catalog

STARLINK-35322

NORAD 66332 · 2025-253P

PAYLOAD ACTIVE UNKNOWN

§ Identity

Operator
Country
US
Launch date
2025-11-06
Launch site
AFETR
Launch vehicle
Mass (kg)
RCS (m²)

Purposes: comms

External: N2YO · Heavens-Above · Gunter

§ Orbital elements

Epoch: 2026-05-24T23:29:27.418848Z

Period
94.27 min
Inclination
43.0005°
Eccentricity
0.0001174
Mean motion
15.27596686 rev/d
Perigee alt
482.2 km
Apogee alt
483.8 km
Semi-major
6,861.1 km
B*
4.9657e-4
RAAN
141.5205°
Arg perigee
268.9354°
Mean anomaly
91.1363°
Rev number
3,191

§ Raw data

STARLINK-353221 66332U 25253P   26144.97878957  .00013434  00000+0  49657-3 0  99922 66332  43.0005 141.5205 0001174 268.9354  91.1363 15.27596686 31914

JSON: /api/v1/satellites/66332 · /tle

For live sub-satellite position, see the globe view (requires WebGL).

§ Visibility from observer

Set your observer location to see the next 7 days of passes ≥ 10°. The values pass through the URL so the page stays shareable.

No JS? Fill the form by hand. The geolocation button needs JavaScript.